User: anonymous   Login
Location: Unspecified
(0.0000°N, 0.0000°E)
Time: 00:56:23
(UTC+00:00)
Language:

Explorer 11/Cluster Stage 4 - Orbit

View from above orbital plane
View from above orbital plane
View from above satellite
View from above satellite

Ground track
Ground track

The orbit data is extracted from the following two-line orbital elements,

1   107U 61013A   19199.61046209  .00000424  00000-0  34689-4 0  9990
2   107  28.7908 272.3148 0547296 276.4092  77.4464 14.08803776918514
Epoch (UTC): 18 July 2019 14:39:03
Eccentricity: 0.0547296
inclination: 28.7908°
perigee height: 467 km
apogee height: 1260 km
right ascension of ascending node: 272.3148°
argument of perigee: 276.4092°
revolutions per day: 14.08803776
mean anomaly at epoch: 77.4464°
orbit number at epoch: 91851

The dashed part of the orbit path shows where the satellite is in the earth's shadow,  

DLR